This is the latest recevied weather packets stored in our database for station/object K4FDS. If no packets are shown the sender has not sent any weather packets the latest 10 day(s).
| Time | Temp. | Humidity | Pressure | Rain* | Wind** | Luminosity | Snow |
|---|---|---|---|---|---|---|---|
| 1777148354 | 20° C | 76% | 1004.8 hPa | 0 mm | 0.45 m/s, 271° | - | - |
| 1777146554 | 20° C | 81% | 1004.7 hPa | 0 mm | 0 m/s | - | - |
| 1777144754 | 20.56° C | 82% | 1004.6 hPa | 0.51 mm | 0 m/s | - | - |
| 1777142954 | 20° C | 79% | 1003.8 hPa | 1.02 mm | 0 m/s | - | - |
| 1777141154 | 24.44° C | 60% | 1004.1 hPa | 0 mm | 0.89 m/s, 299° | - | - |
| 1777139354 | 26.11° C | 49% | 1002.9 hPa | 0 mm | 0.45 m/s, 250° | - | - |
| 1777137554 | 26.67° C | 50% | 1003 hPa | 0 mm | 0.45 m/s, 235° | - | - |
| 1777135754 | 26.67° C | 48% | 1003.4 hPa | 0 mm | 0.45 m/s, 214° | - | - |
| 1777133954 | 25.56° C | 52% | 1003.9 hPa | 0 mm | 0 m/s | - | - |
| 1777132154 | 25.56° C | 52% | 1004.2 hPa | 0 mm | 0.45 m/s, 225° | - | - |
| 1777130354 | 25° C | 51% | 1004.1 hPa | 0 mm | 0.45 m/s, 132° | - | - |
| 1777128553 | 23.89° C | 54% | 1004.5 hPa | 0 mm | 0.45 m/s, 226° | - | - |
| 1777126753 | 22.78° C | 59% | 1004.8 hPa | 0 mm | 0.45 m/s, 267° | - | - |
| 1777124953 | 21.67° C | 61% | 1004.8 hPa | 0 mm | 0 m/s | - | - |
| 1777123153 | 18.89° C | 68% | 1005 hPa | 0 mm | 0.45 m/s, 9° | - | - |
| 1777121353 | 16.67° C | 79% | 1005.6 hPa | 0 mm | 0.45 m/s, 25° | - | - |
| 1777119553 | 14.44° C | 86% | 1005.9 hPa | 0 mm | 0.45 m/s, 0° | - | - |
| 1777117753 | 12.78° C | 92% | 1006.2 hPa | 0 mm | 0 m/s | - | - |
| 1777115953 | 11.67° C | 95% | 1006.3 hPa | 0 mm | 0 m/s | - | - |
| 1777114153 | 11.11° C | 96% | 1006.3 hPa | 0 mm | 0 m/s | - | - |
| 1777112353 | 11.11° C | 95% | 1005.9 hPa | 0 mm | 0 m/s | - | - |
| 1777110553 | 11.67° C | 92% | 1005.6 hPa | 0 mm | 0 m/s | - | - |
| 1777108753 | 11.67° C | 90% | 1005.6 hPa | 0 mm | 0 m/s | - | - |
| 1777106953 | 12.22° C | 92% | 1005.4 hPa | 0 mm | 0 m/s | - | - |
| 1777105153 | 12.22° C | 92% | 1005.4 hPa | 0 mm | 0 m/s | - | - |
* Rain latest hour (hover to see other rain measurements)
** Current wind speed in m/s (hover to see current wind gust speed)